This is the latest recevied weather packets stored in our database for station/object IK2CHZ-3. If no packets are shown the sender has not sent any weather packets the latest 10 day(s).
| Time | Temp. | Humidity | Pressure | Rain* | Wind** | Luminosity | Snow |
|---|---|---|---|---|---|---|---|
| 1777548000 | 17.78° C | 48% | 1024.5 hPa | 0 mm | - | - | - |
| 1777547341 | 17.78° C | 50% | 1024.4 hPa | 0 mm | - | - | - |
| 1777546681 | 17.22° C | 50% | 1024.4 hPa | 0 mm | - | - | - |
| 1777546021 | 16.67° C | 48% | 1024.4 hPa | 0 mm | - | - | - |
| 1777545362 | 16.67° C | 48% | 1024.3 hPa | 0 mm | - | - | - |
| 1777544701 | 16.67° C | 48% | 1024.3 hPa | 0 mm | - | - | - |
| 1777544041 | 17.22° C | 47% | 1024.3 hPa | 0 mm | - | - | - |
| 1777543380 | 16.67° C | 48% | 1024.3 hPa | 0 mm | - | - | - |
| 1777542721 | 16.67° C | 46% | 1024.3 hPa | 0 mm | - | - | - |
| 1777542061 | 16.67° C | 46% | 1024.4 hPa | 0 mm | - | - | - |
| 1777541402 | 16.67° C | 45% | 1024.4 hPa | 0 mm | - | - | - |
| 1777540741 | 16.11° C | 46% | 1024.4 hPa | 0 mm | - | - | - |
| 1777540082 | 15.56° C | 47% | 1024.3 hPa | 0 mm | - | - | - |
| 1777539420 | 16.11° C | 46% | 1024.2 hPa | 0 mm | - | - | - |
| 1777538761 | 15.56° C | 49% | 1024.3 hPa | 0 mm | - | - | - |
| 1777538102 | 15.56° C | 49% | 1024.1 hPa | 0 mm | - | - | - |
| 1777537441 | 15.56° C | 49% | 1024 hPa | 0 mm | - | - | - |
| 1777536783 | 15° C | 51% | 1023.9 hPa | 0 mm | - | - | - |
| 1777536188 | 15° C | 51% | 1023.7 hPa | 0 mm | - | - | - |
| 1777536121 | 15° C | 51% | 1023.7 hPa | 0 mm | - | - | - |
| 1777535463 | 15.56° C | 52% | 1023.6 hPa | 0 mm | - | - | - |
| 1777534801 | 15° C | 53% | 1023.4 hPa | 0 mm | - | - | - |
| 1777534142 | 14.44° C | 53% | 1023.6 hPa | 0 mm | - | - | - |
| 1777533481 | 13.89° C | 55% | 1023.6 hPa | 0 mm | - | - | - |
| 1777532822 | 13.89° C | 57% | 1023.5 hPa | 0 mm | - | - | - |
* Rain latest hour (hover to see other rain measurements)
** Current wind speed in m/s (hover to see current wind gust speed)